User: anonymous   Login
Location: Hickory_CSC
(35.7330°N, 81.3330°W)
Time: 18:46:44
(UTC-05:00)
Language:

Cosmos 1356 Rocket - Orbit

View from above orbital plane
View from above orbital plane
View from above satellite
View from above satellite

Ground track
Ground track

The orbit data is extracted from the following two-line orbital elements,

1 13154U 82039B   14351.80635161  .00002526  00000-0  21544-3 0  4810
2 13154 081.1825 179.6874 0041953 020.6590 339.6312 14.96718067767160
Epoch (UTC): 17 December 2014 19:21:08
Eccentricity: 0.0041953
inclination: 81.1825°
perigee height: 548 km
apogee height: 606 km
right ascension of ascending node: 179.6874°
argument of perigee: 20.6590°
revolutions per day: 14.96718067
mean anomaly at epoch: 339.6312°
orbit number at epoch: 76716

The dashed part of the orbit path shows where the satellite is in the earth's shadow,  

DLR